Regional Weather Roundup
Issued by NWS

Home | Current Version | Previous Version | Text Only | Print | Product List | Glossary On
Versions: 1 2 3 4 5 6 7 8 9 10 11 12 13 14 15 16 17 18 19 20 21 22 23 24 25 26 27 28 29 30 31 32 33 34 35 36 37 38 39 40 41 42 43 44 45 46 47 48 49 50
000
ASUS46 KSEW 262010
RWRWA

WASHINGTON REGIONAL WEATHER ROUNDUP
NATIONAL WEATHER SERVICE SEATTLE WA
100 PM PDT FRI AUG 26 2016

NOTE:"FAIR" INDICATES FEW OR NO CLOUDS BELOW 12,000 FEET WITH NO
SIGNIFICANT WEATHER AND/OR OBSTRUCTIONS TO VISIBILITY.

WAZ505-507>509-262100-
SEATTLE, TACOMA, EVERETT, AND VICINITY

CITY           SKY/WX    TMP DP  RH WIND       PRES   REMARKS
EVERETT        SUNNY     82  51  34 NW5       29.93F
BOEING FIELD   MOSUNNY   81  54  39 N7        29.92S
RENTON         MOSUNNY   83  57  41 NW9       29.90F
SEATAC AIRPORT PTSUNNY   82  54  37 W7        29.93F
JBLM-MCCHORD   MOSUNNY   87  50  28 NE6       29.91F
PUYALLUP       FAIR      88  52  29 VRB5      29.92F
BREMERTON      SUNNY     88  52  29 NE5       29.96F
JBLM-FT LEWIS  MOSUNNY   86  55  34 N5        29.91F
TACOMA NARROWS SUNNY     83  49  30 N7        29.92F
$$

WAZ001-503-506-510-514-515-262100-
NORTH INTERIOR

CITY           SKY/WX    TMP DP  RH WIND       PRES   REMARKS
BELLINGHAM     MOSUNNY   80  54  40 S7        29.90F
FRIDAY HARBOR  MOSUNNY   79  53  40 SE5       29.91F
EASTSOUND      MOSUNNY   73  57  56 N6        29.89F
PORT ANGELES   MOSUNNY   84  49  29 NE3       29.92F
EDIZ HOOK      FAIR      69  51  53 E3        29.91F
PORT TOWNSEND  FAIR      81  54  39 SW8       29.91F
NAS WHIDBEY    PTSUNNY   68  53  58 NW7       29.95F
ARLINGTON        N/A    N/A N/A N/A MISG        N/A
BURLINGTON     SUNNY     84  54  34 CALM      29.90F
$$

WAZ020-022-039-040-504-511-512-262100-
SOUTHWEST INTERIOR

CITY           SKY/WX    TMP DP  RH WIND       PRES   REMARKS
SHELTON        SUNNY     88  50  27 VRB6      29.89F
OLYMPIA        SUNNY     86  52  30 MISG      29.91F
CHEHALIS       FAIR      88  55  33 VRB3      29.91F
KELSO          MOSUNNY   87  51  28 VRB3      29.89F
VANCOUVER      PTSUNNY   86  50  28 W6        29.88F
SCAPPOOSE, OR  PTSUNNY   89  48  24 VRB3      29.87F
PORTLAND, OR   PTSUNNY   86  50  28 W7        29.88F
$$

WAZ021-516-517-262100-
WASHINGTON COAST

CITY           SKY/WX    TMP DP  RH WIND       PRES   REMARKS
FORKS          SUNNY     84  52  33 VRB6      29.91F
HOQUIAM        MOSUNNY   85  57  38 S6        29.90F
ASTORIA, OR    MOSUNNY   81  58  45 NW7       29.89S
$$

WAZ019-023-024-040-518-519-262100-
CASCADE MOUNTAINS AND COLUMBIA GORGE

CITY           SKY/WX    TMP DP  RH WIND       PRES   REMARKS
STAMPEDE PASS  MOSUNNY   74  42  31 VRB7      30.08S
TROUTDALE, OR  PTSUNNY   88  54  31 NW5       29.87F
THE DALLES, OR SUNNY     89  40  17 CALM      29.88F
$$

WAZ026-027-041>044-520-521-262100-
EAST SLOPES

CITY           SKY/WX    TMP DP  RH WIND       PRES   REMARKS
OMAK           SUNNY     85  38  18 VRB3      29.90F
WENATCHEE      SUNNY     85  45  24 E7        29.90F
ELLENSBURG     LGT RAIN  88  44  21 VRB5      29.94F
YAKIMA         SUNNY     90  44  20 S6        29.92F
$$

WAZ028-034-035-262100-
COLUMBIA BASIN

CITY           SKY/WX    TMP DP  RH WIND       PRES   REMARKS
EPHRATA        SUNNY     86  42  21 S8        29.91F
MOSES LAKE     SUNNY     86  43  22 SW7       29.92F
PASCO          SUNNY     85  45  24 VRB3      29.90F
HERMISTON, OR  SUNNY     87  41  19 VRB5      29.91F
$$

WAZ036>038-262100-
NORTHEAST WASHINGTON

CITY           SKY/WX    TMP DP  RH WIND       PRES   REMARKS
SPOKANE GEIGER PTSUNNY   80  36  20 S6        29.97F
SPOKANE FELTS  MOSUNNY   82  40  22 W12       29.96F
FAIRCHILD AFB  SUNNY     81  36  19 VRB7      29.97F
COEURDALENE,ID SUNNY     81  39  22 CALM      29.95F
DEER PARK      SUNNY     80  35  19 S3        29.97F
$$

WAZ029>033-262100-
SOUTHEAST WASHINGTON

CITY           SKY/WX    TMP DP  RH WIND       PRES   REMARKS
PULLMAN        SUNNY     82  36  19 VRB7      30.00F
LEWISTON, ID   SUNNY     85  35  16 NE5       29.93F
WALLA WALLA    SUNNY     86  33  15 W7        29.92F
PENDLETON, OR  SUNNY     85  35  16 MISG      29.94F
$$



USA.gov is the U.S. government's official web portal to all federal, state and local government web resources and services.